TimeHST,TemperatureF,Dew PointF,Humidity,Sea Level PressureIn,VisibilityMPH,Wind Direction,Wind SpeedMPH,Gust SpeedMPH,PrecipitationIn,Events,Conditions,WindDirDegrees,DateUTC
12:54 AM,64.9,64.9,100,29.90,10.0,Calm,Calm,-,N/A,,Clear,0,2014-01-31 10:54:00
1:54 AM,64.9,64.9,100,29.91,10.0,Calm,Calm,-,N/A,,Clear,0,2014-01-31 11:54:00
2:54 AM,64.9,64.0,97,29.91,10.0,East,3.5,-,N/A,,Clear,90,2014-01-31 12:54:00
3:54 AM,66.9,66.0,97,29.90,10.0,ESE,6.9,-,N/A,,Clear,110,2014-01-31 13:54:00
4:54 AM,68.0,66.0,93,29.89,10.0,East,5.8,-,N/A,,Clear,100,2014-01-31 14:54:00
5:54 AM,68.0,66.9,96,29.90,10.0,ESE,6.9,-,N/A,,Clear,110,2014-01-31 15:54:00
6:54 AM,68.0,68.0,100,29.92,10.0,ESE,4.6,-,N/A,,Partly Cloudy,120,2014-01-31 16:54:00
7:54 AM,71.1,68.0,90,29.93,10.0,SE,10.4,-,N/A,,Partly Cloudy,130,2014-01-31 17:54:00
8:54 AM,73.9,69.1,85,29.94,10.0,SE,15.0,-,N/A,,Partly Cloudy,140,2014-01-31 18:54:00
9:54 AM,75.9,69.1,79,29.94,10.0,SE,12.7,-,N/A,,Partly Cloudy,140,2014-01-31 19:54:00
10:54 AM,77.0,70.0,79,29.94,10.0,SE,11.5,-,N/A,,Mostly Cloudy,140,2014-01-31 20:54:00
11:01 AM,75.2,69.8,83,29.92,10.0,SE,10.4,-,N/A,,Scattered Clouds,130,2014-01-31 21:01:00
11:18 AM,73.4,71.6,94,29.92,2.5,South,12.7,-,0.00,Rain,Rain,180,2014-01-31 21:18:00
11:31 AM,73.4,73.4,100,29.91,7.0,SSE,6.9,-,0.04,Rain,Light Rain,150,2014-01-31 21:31:00
11:39 AM,73.4,73.4,100,29.91,7.0,SE,8.1,-,0.04,,Scattered Clouds,140,2014-01-31 21:39:00
11:54 AM,75.9,73.0,91,29.91,7.0,SSE,9.2,-,0.04,,Clear,150,2014-01-31 21:54:00
12:54 PM,77.0,71.1,82,29.88,10.0,SE,11.5,-,N/A,,Mostly Cloudy,140,2014-01-31 22:54:00
1:54 PM,78.1,71.1,79,29.85,10.0,South,13.8,-,N/A,,Mostly Cloudy,170,2014-01-31 23:54:00
2:54 PM,77.0,70.0,79,29.84,10.0,South,18.4,24.2,N/A,,Mostly Cloudy,170,2014-02-01 00:54:00
3:13 PM,71.6,71.6,100,29.84,10.0,South,19.6,31.1,0.00,Rain,Light Rain,180,2014-02-01 01:13:00
3:54 PM,71.1,71.1,100,29.85,10.0,South,13.8,-,0.01,,Overcast,170,2014-02-01 01:54:00
4:43 PM,71.6,69.8,94,29.85,10.0,South,16.1,23.0,0.00,,Overcast,180,2014-02-01 02:43:00
4:54 PM,72.0,68.0,87,29.86,10.0,South,16.1,23.0,0.00,,Overcast,190,2014-02-01 02:54:00
5:01 PM,71.6,69.8,94,29.85,10.0,South,13.8,21.9,0.00,Rain,Light Rain,190,2014-02-01 03:01:00
5:18 PM,71.6,69.8,94,29.85,10.0,South,8.1,-,0.00,,Mostly Cloudy,180,2014-02-01 03:18:00
5:54 PM,71.1,69.1,93,29.87,10.0,SSE,5.8,-,0.00,,Mostly Cloudy,160,2014-02-01 03:54:00
6:54 PM,72.0,70.0,93,29.87,10.0,SSE,8.1,-,N/A,,Overcast,160,2014-02-01 04:54:00
7:54 PM,72.0,71.1,97,29.88,10.0,SE,11.5,-,0.00,,Mostly Cloudy,140,2014-02-01 05:54:00
8:01 PM,71.6,71.6,100,29.87,10.0,SE,11.5,-,N/A,,Mostly Cloudy,140,2014-02-01 06:01:00
8:11 PM,71.6,71.6,100,29.88,10.0,SSE,13.8,-,N/A,,Overcast,150,2014-02-01 06:11:00
8:20 PM,71.6,71.6,100,29.88,10.0,SSE,9.2,-,N/A,,Overcast,150,2014-02-01 06:20:00
8:54 PM,71.1,71.1,100,29.89,10.0,SSE,5.8,-,N/A,,Partly Cloudy,160,2014-02-01 06:54:00
9:54 PM,72.0,70.0,93,29.89,10.0,SE,9.2,-,0.01,,Mostly Cloudy,140,2014-02-01 07:54:00
10:54 PM,71.1,70.0,96,29.89,10.0,SE,8.1,-,N/A,,Clear,140,2014-02-01 08:54:00
11:54 PM,72.0,71.1,97,29.87,10.0,SE,10.4,-,N/A,,Mostly Cloudy,130,2014-02-01 09:54:00